Wilkerson Pass, CO

3:59 PM MDT on April 23, 2017 (GMT -0600)
Wilkerson Pass

Weather History for K4BM - April, 2014

Change the Weather History Date:

Monday, April 28, 2014

  Actual Average (KAFF) Record (KAFF)
Temperature  
Mean Temperature 22 °F -  
Max Temperature 30 °F 57 °F 73 °F (2001)
Min Temperature 14 °F 33 °F 26 °F (2008)
Degree Days  
Heating Degree Days 43    
Moisture  
Dew Point 7 °F    
Average Humidity 56    
Maximum Humidity 73    
Minimum Humidity 29    
Precipitation  
Precipitation 0.00 in - - ()
Sea Level Pressure  
Sea Level Pressure 29.83 in    
Wind  
Wind Speed 13 mph (NW)    
Max Wind Speed 22 mph    
Max Gust Speed 45 mph    
Visibility 10 miles    
Events      
Averages and records for this station are not official NWS values.
T = Trace of Precipitation, MM = Missing Value Source: NWS Daily Summary

Daily Weather History Graph

Daily Weather History Graph

Search for Another Location

Airport or City:

Trip Planner

Search our weather history database for the weather conditions in past years. The results will help you decide how hot, cold, wet, or windy it might be!

Date:

Astronomy

Apr. 28, 2014 Rise Set
Actual Time 6:07 AM MDT 7:52 PM MDT
Civil Twilight 5:38 AM MDT 8:20 PM MDT
Nautical Twilight 5:04 AM MDT 8:55 PM MDT
Astronomical Twilight 4:27 AM MDT 9:32 PM MDT
Moon 5:46 AM MDT (4/28) 7:33 PM MDT (4/28)
Length of Visible Light 14h 41m
Length of Day
13h 44m
Waning Crescent, 0% of the Moon is Illuminated
Apr 28
Waning Crescent
Apr 29
New
May 6
First Quarter
May 14
Full
May 21
Last Quarter

Hourly Weather History & Observations

Time (MDT) Temp. Windchill Dew Point Humidity Pressure Visibility Wind Dir Wind Speed Gust Speed Precip Events Conditions
12:14 AM 19.4 °F 7.2 °F 10.4 °F 68% 29.74 in 10.0 mi WNW 11.5 mph 26.5 mph N/A   Scattered Clouds
12:34 AM 19.4 °F 8.6 °F 10.4 °F 68% 29.74 in 10.0 mi WNW 9.2 mph 26.5 mph N/A   Scattered Clouds
12:54 AM 19.4 °F 7.9 °F 10.4 °F 68% 29.73 in 10.0 mi West 10.4 mph 25.3 mph N/A   Scattered Clouds
1:13 AM 19.4 °F 6.6 °F 10.4 °F 68% 29.72 in 10.0 mi West 12.7 mph 24.2 mph N/A   Mostly Cloudy
1:33 AM 19.4 °F 6.0 °F 8.6 °F 63% 29.72 in 10.0 mi WNW 13.8 mph 29.9 mph N/A   Mostly Cloudy
2:14 AM 19.4 °F 4.5 °F 8.6 °F 63% 29.70 in 10.0 mi WNW 17.3 mph 32.2 mph N/A   Mostly Cloudy
2:34 AM 19.4 °F 6.0 °F 6.8 °F 58% 29.70 in 10.0 mi West 13.8 mph 27.6 mph N/A   Overcast
2:54 AM 19.4 °F 6.0 °F 8.6 °F 63% 29.71 in 10.0 mi WNW 13.8 mph 26.5 mph N/A   Overcast
3:14 AM 17.6 °F 3.7 °F 8.6 °F 68% 29.71 in 10.0 mi WNW 13.8 mph 29.9 mph N/A   Mostly Cloudy
3:34 AM 17.6 °F 3.7 °F 8.6 °F 68% 29.71 in 10.0 mi WNW 13.8 mph 25.3 mph N/A   Mostly Cloudy
3:54 AM 17.6 °F 3.7 °F 10.4 °F 73% 29.71 in 10.0 mi WNW 13.8 mph 26.5 mph N/A   Mostly Cloudy
4:14 AM 17.6 °F 3.2 °F 8.6 °F 68% 29.71 in 10.0 mi NW 15.0 mph 31.1 mph N/A   Mostly Cloudy
4:34 AM 17.6 °F 4.3 °F 8.6 °F 68% 29.71 in 10.0 mi WNW 12.7 mph 24.2 mph N/A   Mostly Cloudy
4:54 AM 17.6 °F 5.7 °F 10.4 °F 73% 29.72 in 10.0 mi West 10.4 mph 28.8 mph N/A   Mostly Cloudy
5:14 AM 17.6 °F 3.7 °F 8.6 °F 68% 29.71 in 10.0 mi West 13.8 mph 36.8 mph N/A   Mostly Cloudy
5:34 AM 17.6 °F 4.3 °F 8.6 °F 68% 29.73 in 10.0 mi West 12.7 mph 29.9 mph N/A   Scattered Clouds
5:53 AM 17.6 °F 3.7 °F 8.6 °F 68% 29.74 in 10.0 mi West 13.8 mph 25.3 mph N/A   Scattered Clouds
6:13 AM 17.6 °F 2.7 °F 8.6 °F 68% 29.74 in 10.0 mi WNW 16.1 mph 29.9 mph N/A   Scattered Clouds
6:33 AM 17.6 °F 3.7 °F 8.6 °F 68% 29.75 in 10.0 mi NW 13.8 mph 26.5 mph N/A   Scattered Clouds
6:54 AM 17.6 °F 7.3 °F 10.4 °F 73% 29.76 in 10.0 mi West 8.1 mph 24.2 mph N/A   Scattered Clouds
7:14 AM 19.4 °F 9.5 °F 10.4 °F 68% 29.75 in 10.0 mi West 8.1 mph 20.7 mph N/A   Clear
7:34 AM 19.4 °F 6.0 °F 10.4 °F 68% 29.76 in 10.0 mi WNW 13.8 mph 25.3 mph N/A   Scattered Clouds
7:54 AM 19.4 °F 6.0 °F 10.4 °F 68% 29.76 in 10.0 mi WNW 13.8 mph 23.0 mph N/A   Scattered Clouds
8:14 AM 19.4 °F 6.6 °F 10.4 °F 68% 29.76 in 10.0 mi West 12.7 mph 24.2 mph N/A   Scattered Clouds
8:54 AM 21.2 °F 11.7 °F 8.6 °F 58% 29.78 in 10.0 mi WNW 8.1 mph 27.6 mph N/A   Scattered Clouds
9:14 AM 23.0 °F 10.6 °F 6.8 °F 50% 29.78 in 10.0 mi WNW 13.8 mph 26.5 mph N/A   Scattered Clouds
9:34 AM 21.2 °F 10.1 °F 6.8 °F 54% 29.79 in 10.0 mi WNW 10.4 mph 27.6 mph N/A   Scattered Clouds
9:54 AM 21.2 °F 10.9 °F 5.0 °F 50% 29.79 in 10.0 mi West 9.2 mph 24.2 mph N/A   Mostly Cloudy
10:14 AM 24.8 °F 17.9 °F 8.6 °F 50% 29.80 in 10.0 mi West 5.8 mph 16.1 mph N/A   Mostly Cloudy
10:33 AM 26.6 °F 15.7 °F 6.8 °F 43% 29.80 in 10.0 mi WNW 12.7 mph 28.8 mph N/A   Scattered Clouds
10:54 AM 26.6 °F 13.4 °F 3.2 °F 37% 29.80 in 10.0 mi NW 18.4 mph 34.5 mph N/A   Clear
11:14 AM 26.6 °F 14.7 °F 3.2 °F 37% 29.80 in 10.0 mi NW 15.0 mph 39.1 mph N/A   Clear
11:34 AM 26.6 °F 17.5 °F 1.4 °F 34% 29.81 in 10.0 mi WNW 9.2 mph 32.2 mph N/A   Clear
11:54 AM 28.4 °F 19.1 °F -0.4 °F 29% 29.82 in 10.0 mi WNW 10.4 mph 26.5 mph N/A   Scattered Clouds
12:14 PM 28.4 °F 19.7 °F 1.4 °F 31% 29.82 in 10.0 mi NW 9.2 mph 28.8 mph N/A   Scattered Clouds
12:34 PM 28.4 °F 18.5 °F 1.4 °F 31% 29.82 in 10.0 mi West 11.5 mph 28.8 mph N/A   Scattered Clouds
12:54 PM 30.2 °F 21.3 °F 5.0 °F 34% 29.83 in 10.0 mi NW 10.4 mph 28.8 mph N/A   Mostly Cloudy
1:14 PM 28.4 °F 16.6 °F 6.8 °F 40% 29.83 in 10.0 mi NW 16.1 mph 31.1 mph N/A   Mostly Cloudy
1:54 PM 28.4 °F 18.0 °F 10.4 °F 47% 29.84 in 10.0 mi North 12.7 mph 27.6 mph N/A   Scattered Clouds
2:14 PM 28.4 °F 18.0 °F 5.0 °F 37% 29.84 in 10.0 mi WNW 12.7 mph 25.3 mph N/A   Scattered Clouds
2:34 PM 28.4 °F 18.0 °F 5.0 °F 37% 29.84 in 10.0 mi NNW 12.7 mph 24.2 mph N/A   Scattered Clouds
3:13 PM 26.6 °F 15.7 °F 5.0 °F 40% 29.85 in 10.0 mi NW 12.7 mph 29.9 mph N/A   Scattered Clouds
3:34 PM 26.6 °F 14.7 °F 8.6 °F 47% 29.86 in 10.0 mi NNW 15.0 mph 24.2 mph N/A   Scattered Clouds
3:54 PM 28.4 °F 19.7 °F 8.6 °F 43% 29.87 in 10.0 mi NW 9.2 mph 26.5 mph N/A   Mostly Cloudy
4:14 PM 26.6 °F 15.2 °F 5.0 °F 40% 29.87 in 10.0 mi NW 13.8 mph 34.5 mph N/A   Scattered Clouds
4:34 PM 24.8 °F 15.3 °F 6.8 °F 46% 29.88 in 10.0 mi NNW 9.2 mph 34.5 mph N/A   Clear
4:54 PM 26.6 °F 18.2 °F 3.2 °F 37% 29.89 in 10.0 mi WNW 8.1 mph 20.7 mph N/A   Clear
5:13 PM 24.8 °F 12.9 °F 10.4 °F 54% 29.90 in 10.0 mi NNW 13.8 mph 29.9 mph N/A   Scattered Clouds
5:34 PM 23.0 °F 11.1 °F 10.4 °F 59% 29.91 in 10.0 mi NNW 12.7 mph 25.3 mph N/A   Mostly Cloudy
5:54 PM 23.0 °F 12.4 °F 8.6 °F 54% 29.91 in 10.0 mi NW 10.4 mph 20.7 mph N/A   Mostly Cloudy
6:14 PM 23.0 °F 11.1 °F 5.0 °F 46% 29.92 in 10.0 mi WNW 12.7 mph 19.6 mph N/A   Scattered Clouds
6:34 PM 21.2 °F 11.7 °F 8.6 °F 58% 29.93 in 10.0 mi WNW 8.1 mph 29.9 mph N/A   Scattered Clouds
6:54 PM 21.2 °F 8.3 °F 8.6 °F 58% 29.92 in 7.0 mi NW 13.8 mph 28.8 mph N/A   Mostly Cloudy
7:14 PM 19.4 °F 9.5 °F 5.0 °F 54% 29.94 in 10.0 mi WNW 8.1 mph 18.4 mph N/A   Scattered Clouds
7:34 PM 19.4 °F 7.2 °F 5.0 °F 54% 29.95 in 10.0 mi NW 11.5 mph 29.9 mph N/A   Scattered Clouds
7:54 PM 17.6 °F 4.3 °F 5.0 °F 58% 29.95 in 10.0 mi WNW 12.7 mph 28.8 mph N/A   Scattered Clouds
8:14 PM 17.6 °F 8.2 °F 5.0 °F 58% 29.96 in 10.0 mi WNW 6.9 mph 27.6 mph N/A   Scattered Clouds
8:34 PM 17.6 °F 5.0 °F 5.0 °F 58% 29.96 in 10.0 mi WNW 11.5 mph 33.4 mph N/A   Mostly Cloudy
8:54 PM 15.8 °F -1.5 °F 5.0 °F 62% 29.96 in 10.0 mi NW 20.7 mph 35.7 mph N/A   Mostly Cloudy
9:14 PM 15.8 °F -0.2 °F 5.0 °F 62% 29.96 in 10.0 mi NW 17.3 mph 35.7 mph N/A   Mostly Cloudy
9:34 PM 15.8 °F -0.6 °F 5.0 °F 62% 29.97 in 10.0 mi NNW 18.4 mph 33.4 mph N/A   Mostly Cloudy
9:54 PM 15.8 °F -1.1 °F 5.0 °F 62% 29.97 in 10.0 mi NNW 19.6 mph 44.9 mph N/A   Overcast
10:14 PM 15.8 °F -1.5 °F 5.0 °F 62% 29.97 in 10.0 mi NNW 20.7 mph 39.1 mph N/A   Overcast
10:33 PM 15.8 °F -0.6 °F 5.0 °F 62% 29.98 in 10.0 mi NNW 18.4 mph 40.3 mph N/A   Overcast
10:54 PM 15.8 °F -0.6 °F 5.0 °F 62% 29.98 in 10.0 mi NNW 18.4 mph 36.8 mph N/A   Mostly Cloudy
11:13 PM 14.0 °F -3.4 °F 5.0 °F 67% 29.99 in 10.0 mi NNW 19.6 mph 34.5 mph N/A   Mostly Cloudy
11:33 PM 14.0 °F -3.9 °F 5.0 °F 67% 30.00 in 10.0 mi NNW 20.7 mph 38.0 mph N/A   Scattered Clouds
11:53 PM 14.0 °F -4.3 °F 5.0 °F 67% 30.00 in 10.0 mi NNW 21.9 mph 38.0 mph N/A   Scattered Clouds